This is the latest recevied weather packets stored in our database for station/object KD0MAC. If no packets are shown the sender has not sent any weather packets the latest 10 day(s).
| Time | Temp. | Humidity | Pressure | Rain* | Wind** | Luminosity | Snow |
|---|---|---|---|---|---|---|---|
| 1788651275 | 31.67° C | 48% | 1013.2 hPa | 0 mm | - | 52 W/m² | - |
| 1788651234 | 31.67° C | 48% | 1013.2 hPa | 0 mm | - | 52 W/m² | - |
| 1788650975 | 31.67° C | 49% | 1013.2 hPa | 0 mm | - | 65 W/m² | - |
| 1788650675 | 32.22° C | 47% | 1013.2 hPa | 0 mm | - | 53 W/m² | - |
| 1788650375 | 32.22° C | 45% | 1013.2 hPa | 0 mm | - | 45 W/m² | - |
| 1788650334 | 32.22° C | 45% | 1013.2 hPa | 0 mm | - | 45 W/m² | - |
| 1788650035 | 32.78° C | 44% | 1012.9 hPa | 0 mm | - | 39 W/m² | - |
| 1788649775 | 33.33° C | 43% | 1012.9 hPa | 0 mm | - | 42 W/m² | - |
| 1788649734 | 33.33° C | 43% | 1012.9 hPa | 0 mm | - | 42 W/m² | - |
| 1788649435 | 33.89° C | 42% | 1012.9 hPa | 0 mm | - | 52 W/m² | - |
| 1788649134 | 33.89° C | 41% | 1012.9 hPa | 0 mm | - | 156 W/m² | - |
| 1788648835 | 34.44° C | 42% | 1012.9 hPa | 0 mm | - | 217 W/m² | - |
| 1788648534 | 33.89° C | 43% | 1012.5 hPa | 0 mm | - | 223 W/m² | - |
| 1788648235 | 33.89° C | 42% | 1012.9 hPa | 0 mm | - | 222 W/m² | - |
| 1788647934 | 35° C | 40% | 1012.5 hPa | 0 mm | - | 235 W/m² | - |
| 1788647635 | 36.11° C | 35% | 1012.5 hPa | 0 mm | - | 251 W/m² | - |
| 1788647334 | 36.11° C | 36% | 1012.5 hPa | 0 mm | - | 269 W/m² | - |
| 1788647039 | 36.11° C | 36% | 1012.2 hPa | 0 mm | - | 277 W/m² | - |
| 1788646775 | 36.67° C | 36% | 1012.5 hPa | 0 mm | - | 288 W/m² | - |
| 1788646475 | 36.67° C | 37% | 1012.2 hPa | 0 mm | - | 297 W/m² | - |
| 1788646175 | 36.67° C | 37% | 1012.5 hPa | 0 mm | - | 311 W/m² | - |
| 1788646134 | 36.67° C | 37% | 1012.5 hPa | 0 mm | - | 311 W/m² | - |
| 1788645875 | 36.67° C | 36% | 1012.2 hPa | 0 mm | - | 323 W/m² | - |
| 1788645834 | 36.67° C | 36% | 1012.2 hPa | 0 mm | - | 323 W/m² | - |
| 1788645575 | 37.22° C | 35% | 1012.5 hPa | 0 mm | - | 337 W/m² | - |
* Rain latest hour (hover to see other rain measurements)
** Current wind speed in m/s (hover to see current wind gust speed)